TimeCDT,TemperatureF,Dew PointF,Humidity,Sea Level PressureIn,VisibilityMPH,Wind Direction,Wind SpeedMPH,Gust SpeedMPH,PrecipitationIn,Events,Conditions,WindDirDegrees,DateUTC
12:15 AM,64.2,62.6,94,29.81,0.5,ESE,10.4,-,N/A,Fog,Fog,120,2012-10-23 05:15:00
12:35 AM,64.4,62.6,94,29.81,0.5,ESE,9.2,-,N/A,Fog,Fog,120,2012-10-23 05:35:00
12:55 AM,64.4,62.6,94,29.79,0.5,ESE,9.2,-,N/A,Fog,Fog,120,2012-10-23 05:55:00
1:15 AM,64.4,62.6,94,29.79,0.5,ESE,9.2,-,N/A,Fog,Fog,120,2012-10-23 06:15:00
1:35 AM,64.4,62.8,94,29.79,0.5,ESE,9.2,-,N/A,Fog,Fog,120,2012-10-23 06:35:00
1:55 AM,64.4,63.0,95,29.79,0.5,SE,10.4,-,N/A,Fog,Fog,140,2012-10-23 06:55:00
2:15 AM,64.4,63.0,95,29.79,1.0,SSE,11.5,16.1,N/A,,Overcast,150,2012-10-23 07:15:00
2:35 AM,63.9,62.6,96,29.79,5.0,SSE,11.5,-,N/A,,Mostly Cloudy,160,2012-10-23 07:35:00
2:55 AM,63.5,62.1,95,29.79,4.0,South,11.5,-,N/A,,Mostly Cloudy,170,2012-10-23 07:55:00
3:15 AM,63.0,61.7,96,29.79,4.0,South,10.4,-,N/A,,Scattered Clouds,180,2012-10-23 08:15:00
3:35 AM,62.4,60.8,94,29.79,5.0,South,6.9,-,N/A,,Clear,190,2012-10-23 08:35:00
4:15 AM,61.7,59.9,94,29.78,7.0,South,9.2,-,N/A,,Clear,190,2012-10-23 09:15:00
4:35 AM,61.5,59.4,93,29.78,5.0,South,8.1,-,N/A,,Clear,190,2012-10-23 09:35:00
4:55 AM,61.3,59.0,92,29.78,5.0,South,8.1,-,N/A,,Clear,180,2012-10-23 09:55:00
5:15 AM,61.0,58.6,92,29.78,5.0,South,6.9,-,N/A,,Clear,190,2012-10-23 10:15:00
5:35 AM,60.8,58.5,92,29.78,5.0,South,8.1,-,N/A,,Clear,180,2012-10-23 10:35:00
6:15 AM,59.9,57.6,92,29.79,5.0,SSE,4.6,-,N/A,,Scattered Clouds,160,2012-10-23 11:15:00
7:15 AM,57.4,55.4,93,29.78,5.0,SE,5.8,-,N/A,,Clear,140,2012-10-23 12:15:00
8:15 AM,59.2,56.8,92,29.79,7.0,South,8.1,-,N/A,,Overcast,170,2012-10-23 13:15:00
8:35 AM,61.0,58.5,91,29.79,5.0,South,6.9,-,N/A,,Overcast,170,2012-10-23 13:35:00
8:55 AM,61.7,58.5,89,29.80,7.0,SSE,9.2,-,N/A,,Overcast,160,2012-10-23 13:55:00
9:15 AM,62.6,59.2,89,29.80,7.0,SSE,6.9,-,N/A,,Overcast,160,2012-10-23 14:15:00
9:35 AM,63.5,60.6,90,29.80,7.0,South,8.1,-,N/A,,Overcast,170,2012-10-23 14:35:00
9:55 AM,64.4,61.5,90,29.80,7.0,South,8.1,-,N/A,,Overcast,170,2012-10-23 14:55:00
10:55 AM,66.6,61.9,85,29.80,10.0,South,13.8,-,N/A,,Overcast,190,2012-10-23 15:55:00
11:15 AM,66.7,62.2,85,29.79,10.0,South,10.4,-,N/A,,Overcast,170,2012-10-23 16:15:00
11:35 AM,66.2,62.8,89,29.79,5.0,South,9.2,-,N/A,,Overcast,170,2012-10-23 16:35:00
11:55 AM,65.8,63.1,91,29.79,5.0,SSE,11.5,-,N/A,,Light Drizzle,160,2012-10-23 16:55:00
12:15 PM,66.7,63.7,90,29.78,10.0,SSE,13.8,-,N/A,,Overcast,160,2012-10-23 17:15:00
12:35 PM,67.1,62.6,85,29.77,10.0,South,18.4,-,N/A,,Overcast,170,2012-10-23 17:35:00
12:55 PM,68.0,62.6,83,29.77,10.0,South,13.8,-,N/A,,Overcast,170,2012-10-23 17:55:00
1:15 PM,68.2,62.6,82,29.76,10.0,South,12.7,-,N/A,,Overcast,170,2012-10-23 18:15:00
1:35 PM,67.3,62.4,84,29.75,10.0,South,16.1,-,N/A,,Overcast,170,2012-10-23 18:35:00
1:55 PM,66.2,62.8,89,29.75,10.0,South,16.1,-,N/A,,Overcast,170,2012-10-23 18:55:00
2:15 PM,66.6,62.8,88,29.74,7.0,South,16.1,-,N/A,,Overcast,170,2012-10-23 19:15:00
2:35 PM,67.5,63.0,85,29.73,10.0,South,13.8,-,N/A,,Overcast,170,2012-10-23 19:35:00
2:55 PM,70.2,63.5,79,29.72,10.0,South,15.0,-,N/A,,Overcast,170,2012-10-23 19:55:00
3:15 PM,71.4,62.8,74,29.72,10.0,South,16.1,-,N/A,,Overcast,190,2012-10-23 20:15:00
3:35 PM,72.7,62.1,69,29.71,10.0,South,17.3,21.9,N/A,,Mostly Cloudy,170,2012-10-23 20:35:00
3:55 PM,71.2,61.7,72,29.72,10.0,South,12.7,16.1,N/A,,Mostly Cloudy,170,2012-10-23 20:55:00
4:15 PM,71.1,61.5,72,29.72,10.0,South,12.7,19.6,N/A,,Overcast,170,2012-10-23 21:15:00
4:35 PM,70.7,61.7,73,29.73,10.0,South,11.5,-,N/A,,Overcast,170,2012-10-23 21:35:00
4:55 PM,70.3,61.3,73,29.73,10.0,SSE,13.8,-,N/A,,Overcast,160,2012-10-23 21:55:00
5:15 PM,69.8,61.5,75,29.74,10.0,SSE,11.5,-,N/A,,Overcast,160,2012-10-23 22:15:00
5:35 PM,69.3,61.7,77,29.74,10.0,SSE,10.4,-,N/A,,Overcast,150,2012-10-23 22:35:00
5:55 PM,69.1,61.7,77,29.73,10.0,SE,10.4,-,N/A,,Overcast,140,2012-10-23 22:55:00
6:15 PM,68.9,61.7,78,29.74,10.0,SE,10.4,-,N/A,,Overcast,140,2012-10-23 23:15:00
6:35 PM,68.0,61.3,79,29.74,10.0,SE,9.2,-,N/A,,Overcast,130,2012-10-23 23:35:00
7:15 PM,66.2,61.0,83,29.75,10.0,SE,8.1,-,N/A,,Scattered Clouds,140,2012-10-24 00:15:00
7:35 PM,66.4,61.3,84,29.75,10.0,SE,9.2,-,N/A,,Overcast,130,2012-10-24 00:35:00
7:55 PM,67.1,61.5,82,29.75,10.0,SE,11.5,-,N/A,,Overcast,130,2012-10-24 00:55:00
8:15 PM,66.2,61.2,84,29.76,10.0,SE,8.1,-,N/A,,Scattered Clouds,130,2012-10-24 01:15:00
8:35 PM,65.1,60.8,86,29.77,10.0,SE,6.9,-,N/A,,Mostly Cloudy,130,2012-10-24 01:35:00
8:55 PM,64.6,60.8,88,29.77,10.0,SE,5.8,-,N/A,,Mostly Cloudy,130,2012-10-24 01:55:00
9:15 PM,64.9,61.0,87,29.77,10.0,SE,6.9,-,N/A,,Overcast,140,2012-10-24 02:15:00
9:35 PM,64.8,61.0,88,29.77,10.0,SE,6.9,-,N/A,,Overcast,140,2012-10-24 02:35:00
9:55 PM,64.8,61.0,88,29.77,10.0,SE,9.2,-,N/A,,Scattered Clouds,140,2012-10-24 02:55:00
10:15 PM,64.4,60.8,88,29.77,10.0,SE,9.2,-,N/A,,Scattered Clouds,140,2012-10-24 03:15:00
10:35 PM,65.3,61.3,87,29.78,10.0,SE,6.9,-,N/A,,Overcast,140,2012-10-24 03:35:00
11:15 PM,65.5,61.7,88,29.78,10.0,SE,11.5,-,N/A,,Mostly Cloudy,140,2012-10-24 04:15:00